Location: Caulières
(49.7795°N, 1.8896°E)
Time: 21:48:49
(UTC+00:00)

Daily predictions for brighter satellites

Satellite Brightness Start Highest point End
(mag) Time Altitude Azimuth Time Altitude Azimuth Time Altitude Azimuth
ARIANE 5 R/B 2.6 17:28:01 10° SSE 17:33:09 88° ENE 17:38:16 10° NNW
Cosmos 2237 Rocket 3.1 17:31:34 10° NNW 17:36:28 29° NE 17:41:21 10° ESE
Cosmos 2322 Rocket 4.0 17:31:37 10° NW 17:36:44 37° WSW 17:41:49 10° S
Cosmos 158 Rocket 4.4 17:32:18 10° S 17:36:46 38° ESE 17:41:15 10° NE
Aureole 3 Rocket 4.2 17:33:39 10° NNE 17:36:50 19° ENE 17:39:30 10° ESE
ATLAS 5 CENTAUR R/B 1.8 17:33:56 10° NW 17:38:07 83° SW 17:43:20 10° SE
Meteor 1-28 Rocket 4.1 17:36:09 10° N 17:39:19 43° WNW 17:42:29 10° SW
Cosmos 1378 Rocket 3.8 17:36:06 10° SSE 17:40:12 44° E 17:44:18 10° NNE
SeaSat 1 2.6 17:35:30 10° SSE 17:40:24 83° WSW 17:45:20 10° NNW
Resurs 01 Rocket 2.7 17:38:19 10° ESE 17:41:48 24° ENE 17:45:19 10° N
USA 234 4.1 17:35:28 10° SE 17:41:52 55° SW 17:48:18 10° WNW
SKYMED 2 3.9 17:38:57 10° NNE 17:43:08 44° E 17:47:17 10° S
Cosmos 1459 Rocket 4.2 17:36:57 10° N 17:43:10 82° W 17:49:27 10° S
Thor Agena Rocket 4.3 17:38:36 10° S 17:43:36 59° WSW 17:48:42 10° NNW
GP-B 3.1 17:40:01 10° SSE 17:44:19 63° E 17:48:39 10° N
Cosmos 2219 Rocket 3.1 17:41:04 10° NW 17:46:31 54° WSW 17:51:55 10° S
Cosmos 1727 Rocket 4.5 17:40:58 10° SSW 17:47:08 66° WNW 17:53:17 10° N
COSMO-SKYMED 1 3.3 17:43:46 10° NE 17:47:22 28° E 17:50:57 10° SSE
Cosmos 2292 Rocket 2.4 17:46:46 10° S 17:49:38 72° E 17:52:39 10° NNE
CZ-4 R/B 4.3 17:46:37 10° SSE 17:50:35 76° ENE 17:54:33 10° N
SJ-12 4.2 17:47:16 10° S 17:51:03 65° WSW 17:54:52 10° NNW
NOSS 3-3 (A) 4.3 17:46:44 10° S 17:51:24 37° ESE 17:56:51 10° NE
PSLV R/B 4.0 17:47:46 10° SE 17:51:31 35° ENE 17:55:17 10° N
Cosmos 2322 3.7 17:45:59 10° NNW 17:51:44 74° ENE 17:57:26 10° SE
USA 306 1.4 17:50:13 10° WNW 17:53:18 68° NNE 17:55:02 14° ESE
IRS-P3 4.2 17:48:32 10° SSE 17:53:51 89° WSW 17:59:14 10° NNW
Cosmos 2016 Rocket 4.0 17:47:55 10° N 17:54:10 80° E 18:00:28 10° SSE
Resurs 1-3 3.5 17:50:56 10° SSE 17:55:10 61° ENE 17:59:26 10° N
Cosmos 1802 Rocket 4.2 17:51:06 10° N 17:57:31 85° W 18:03:57 10° S
Cosmos 1025 Rocket 3.5 17:54:33 10° SSE 17:58:33 38° E 18:02:34 10° NNE
Cosmos 2285 Rocket 4.3 17:52:24 10° NNW 17:58:37 47° ENE 18:04:45 10° SE
Cosmos 2242 Rocket 3.6 17:54:17 10° S 17:58:39 86° W 18:03:04 10° N
SJ-7 4.4 17:55:43 10° SE 17:59:14 44° ENE 18:02:46 10° N
SL-16 R/B 3.7 17:55:45 10° N 17:59:29 18° NE 18:02:26 12° ENE
SPOT 1/Viking Rocket 3.8 17:58:58 10° S 18:04:04 74° WSW 18:09:12 10° NNW
Cosmos 2227 Rocket 4.0 18:02:37 10° ESE 18:03:35 11° E 18:03:35 11° E
NOSS 3-4 (A) 4.1 18:02:19 10° NW 18:08:29 46° NE 18:15:10 12° ESE
SJ-6B 3.6 18:05:43 10° ESE 18:08:29 23° ENE 18:11:16 10° NNE
NOSS 3-4 (C) 4.1 18:02:33 10° NW 18:08:44 46° NE 18:15:23 12° ESE
Cosmos 2233 Rocket 4.0 18:03:50 10° N 18:10:08 79° E 18:16:26 10° SSE
SPOT 5 4.2 18:08:20 14° E 18:10:39 20° ENE 18:14:12 10° NNE
CZ-2D R/B 3.2 18:09:09 10° SSE 18:13:01 77° ENE 18:17:02 10° NNW
Cosmos 1674 Rocket 3.5 18:10:19 10° S 18:14:41 71° E 18:19:05 10° NNE
Cosmos 1725 Rocket 4.4 18:08:51 10° NNW 18:15:03 70° W 18:21:16 10° S
Cosmos 1315 Rocket 2.9 18:12:21 10° NNW 18:16:08 71° W 18:19:55 10° S
Meteor 1-11 4.2 18:12:27 10° S 18:18:02 82° E 18:23:48 10° NNE
Cosmos 1867 3.7 18:16:48 10° SW 18:22:14 77° NW 18:27:44 10° NE
SL-16 R/B 4.4 18:19:02 10° N 18:24:14 29° WNW 18:29:26 10° WSW
ATLAS 2AS CENTAUR R/B 3.9 18:18:30 10° W 18:24:44 34° NNW 18:30:53 10° NE
Cosmos 724 4.4 18:18:45 10° SW 18:24:56 90° W 18:31:04 10° NE
Cosmos 2061 Rocket 4.0 18:18:53 10° N 18:25:20 87° E 18:31:40 10° S
Lacrosse 5 rocket 1.3 18:22:41 10° WSW 18:26:07 58° NNW 18:28:21 21° NE
CZ-4 R/B 3.3 18:28:09 13° NE 18:28:09 13° NE 18:28:55 10° NNE
Cosmos 2151 Rocket 4.1 18:26:35 10° NNW 18:31:03 64° W 18:35:29 10° S
Meteor 2-1 Rocket 4.3 18:25:21 10° NNW 18:31:10 89° WSW 18:37:03 10° S
CZ-4C R/B 1.7 18:27:32 10° SSW 18:31:46 75° SE 18:36:09 15° NE
Meteor 1-31 Rocket 4.2 18:32:59 18° NE 18:32:59 18° NE 18:34:32 10° NNE
Radarsat Rocket 4.1 18:29:15 10° SSE 18:35:05 80° WSW 18:41:22 10° NNW
CARTOSAT-1 3.4 18:30:55 10° SSE 18:35:07 90° ENE 18:39:21 10° NNW
IRAS Rocket 4.2 18:29:38 10° SSE 18:35:08 62° ENE 18:40:42 10° NNW
NOSS 0 Rocket 4.1 18:31:15 10° NNW 18:37:32 80° WSW 18:43:45 10° SSE
CRYOSAT 2 4.5 18:32:46 10° NNE 18:37:33 52° E 18:42:18 10° SSE
Cosmos 1356 Rocket 4.3 18:34:54 10° NNW 18:38:41 49° W 18:42:30 10° S
USA 290 3.4 18:36:42 10° SW 18:39:45 41° WNW 18:42:50 10° NNE
Cosmos 1464 Rocket 4.2 18:39:32 10° N 18:45:41 47° ENE 18:51:45 10° SSE
USA 267 3.7 18:41:48 18° NE 18:46:40 56° NNW 18:53:01 10° W
ERS-1 Rocket 4.4 18:48:49 20° NE 18:48:49 20° NE 18:51:38 10° N
Cosmos 2297 Rocket 2.3 18:42:45 10° S 18:48:14 54° ESE 18:52:37 16° NE
Cosmos 1607 4.0 18:42:26 10° SW 18:48:35 79° NW 18:54:10 13° NE
Cosmos 1570 Rocket 4.2 18:44:19 10° S 18:49:21 46° ESE 18:52:48 19° NE
BREEZE-M DEB (TANK) 4.0 18:46:09 10° W 18:49:45 69° SSW 18:56:53 19° ESE
CSL-04 Rocket 3.9 18:47:26 23° ESE 18:50:11 42° ENE 18:55:08 10° N
Cosmos 2344 4.3 18:44:16 10° SSE 18:50:27 25° ESE 18:51:12 25° ESE
Cosmos 1455 Rocket 2.8 18:47:06 10° N 18:51:25 71° E 18:55:41 10° SSE
Cosmos 1975 Rocket 4.2 18:48:26 10° SSE 18:50:38 25° SE 18:50:38 25° SE
DNEPR-1 R/B 4.3 18:48:01 10° NNW 18:52:33 45° NE 18:54:13 34° E
Cosmos 1125 Rocket 3.7 18:49:06 10° NNW 18:54:16 70° WSW 18:59:25 10° SSE
YAOGAN 1 4.3 18:53:16 10° SSW 18:57:09 34° W 19:01:04 10° NNW
Cosmos 2221 Rocket 3.8 18:52:48 10° SSW 18:57:15 71° WNW 19:01:46 10° N
Okean 2 Rocket 4.4 18:56:01 10° NNW 19:00:11 42° W 19:04:17 10° SSW
Meteor 1-27 4.2 18:56:30 10° N 19:02:18 84° ENE 19:08:07 10° SSE
Okean 1 Rocket 4.2 18:59:17 10° NNW 19:03:30 45° W 19:07:39 10° SSW
DMSP B5D1-3 4.4 18:59:10 10° NNE 19:04:18 89° WNW 19:09:25 10° SSW
Cosmos 2208 Rocket 4.2 19:01:33 10° S 19:06:32 47° ESE 19:07:29 42° ENE
Terra 3.5 19:11:52 18° NNE 19:11:52 18° NNE 19:13:36 10° N
COSMOS 2428 4.3 19:06:19 10° NW 19:11:28 35° WSW 19:16:36 10° S
NOSS 3-3 (C) 3.8 19:07:34 10° SW 19:12:52 81° NW 19:16:44 24° NE
CZ-4B R/B 3.7 19:14:51 69° NE 19:14:51 69° NE 19:18:33 10° N
Cosmos 1980 4.0 19:09:44 10° NNW 19:15:22 67° WSW 19:20:52 10° SSE
Meteor 2-17 Rocket 4.3 19:09:22 10° S 19:15:25 73° E 19:21:28 10° NNE
Resurs 01 Rocket 2.7 19:13:43 10° S 19:17:56 45° W 19:22:10 10° NNW
Cosmos 2237 Rocket 2.5 19:15:20 10° NNW 19:20:58 66° WSW 19:25:52 14° SSE
ARIANE 6 FM1 Upper Stage 4.0 19:17:40 10° NNW 19:20:14 26° N 19:20:14 26° N
Cosmos 44 Rocket 3.9 19:17:38 10° SSW 19:21:21 42° SSE 19:21:21 42° SSE
COSMO-SKYMED 1 4.2 19:18:58 10° N 19:22:39 32° WNW 19:26:18 10° SW
Cosmos 773 Rocket 3.9 19:18:36 10° SSW 19:23:48 69° ESE 19:25:06 49° NE
Aureole 3 Rocket 4.5 19:20:11 10° NNW 19:24:04 33° W 19:27:10 10° SSW
Cosmos 2228 2.8 19:21:28 10° N 19:25:36 88° NNW 19:25:36 88° NNW
Orbus 7S? 3.8 19:19:58 10° WNW 19:28:14 83° SW 19:28:58 64° SE
Cosmos 2150 Rocket 3.9 19:27:42 10° NNW 19:32:54 87° WSW 19:33:58 57° SSE
Cosmos 2298 Rocket 3.9 19:28:18 10° NNW 19:33:38 89° ENE 19:34:42 59° SSE
NOSS 3-3 (A) 4.4 19:36:43 10° WSW 19:41:58 53° NW 19:45:02 28° NNE
SL-16 R/B 2.2 19:39:07 10° NNW 19:44:20 62° NNE 19:44:20 62° NNE
Cosmos 2227 Rocket 2.7 19:41:33 10° SSW 19:45:29 45° S 19:45:29 45° S
SPOT 5 3.0 19:47:23 62° SSW 19:48:00 71° WSW 19:53:03 10° NNW
MOS 1 4.3 19:49:14 65° NE 19:49:14 65° NE 19:54:21 10° N
Okean O Rocket 4.3 20:02:07 10° N 20:02:07 10° N 20:02:09 10° N
NOSS 3-4 (A) 4.1 19:53:03 10° NW 19:59:42 62° SW 20:02:39 38° S
NOSS 3-4 (C) 4.1 19:53:18 10° NW 19:59:59 63° SW 20:02:53 39° S
CZ-4 R/B 3.8 20:03:09 16° NNW 20:03:09 16° NNW 20:03:58 10° NNW
Cosmos 2034 Rocket 4.0 19:55:13 10° NNW 20:01:23 79° W 20:02:53 54° S
Lacrosse 5 rocket 3.6 20:00:25 10° WNW 20:01:48 18° NW 20:01:48 18° NW
CZ-4B R/B 3.7 20:08:36 49° NNW 20:08:36 49° NNW 20:12:25 10° NNW
BREEZE-M DEB (TANK) 3.9 19:53:45 10° WSW 20:10:25 68° S 20:10:46 67° SSE
ADEOS 4.4 20:12:43 45° NNW 20:12:43 45° NNW 20:16:19 10° NNW
Cosmos 1634 Rocket 4.4 20:05:21 10° N 20:10:07 52° N 20:10:07 52° N
ATLAS 2AS CENTAUR R/B 4.1 20:12:04 10° NW 20:17:37 25° N 20:18:40 24° NNE
CZ-4C R/B 3.5 20:16:21 10° W 20:20:36 31° NNW 20:21:07 30° NNW
USA 267 3.8 20:29:08 48° N 20:29:08 48° N 20:35:21 10° WNW
Cosmos 2297 Rocket 3.7 20:27:28 10° WSW 20:32:32 33° NW 20:34:29 26° N
Terra 4.3 20:50:29 17° NNW 20:50:29 17° NNW 20:51:36 10° NNW
Cosmos 2344 4.2 20:56:21 10° SW 21:01:17 42° WSW 21:01:17 42° WSW
SL-16 R/B 4.5 21:23:54 10° NW 21:26:13 20° WNW 21:26:13 20° WNW
